5-Min.Temp.ØTemp.MaxTemp.MinLuftfeuchteLuftdruckRegenWindØWindböeMax.
00:00-1.3°C-1.3°C-1.4°C88%1045.9hPa0.0mm0.0km/h0.0km/h
00:05-1.5°C-1.4°C-1.6°C88%1045.9hPa0.0mm0.0km/h0.0km/h
00:10-1.6°C-1.5°C-1.6°C89%1045.8hPa0.0mm0.0km/h0.0km/h
00:15-1.7°C-1.6°C-1.8°C89%1045.8hPa0.0mm0.0km/h1.8km/h
00:20-1.9°C-1.8°C-1.9°C89%1045.7hPa0.0mm0.0km/h0.0km/h
00:25-1.9°C-1.9°C-2.0°C89%1045.7hPa0.0mm0.0km/h0.0km/h
00:30-1.9°C-1.9°C-1.9°C89%1045.6hPa0.0mm0.0km/h0.0km/h
00:35-1.9°C-1.9°C-2.0°C89%1045.6hPa0.0mm0.0km/h0.0km/h
00:40-2.0°C-2.0°C-2.1°C89%1045.5hPa0.0mm0.0km/h0.0km/h
00:45-2.1°C-2.0°C-2.1°C89%1045.5hPa0.0mm0.0km/h0.0km/h
00:50-2.2°C-2.1°C-2.2°C89%1045.5hPa0.0mm0.0km/h0.0km/h
00:55-2.2°C-2.2°C-2.3°C89%1045.5hPa0.0mm0.0km/h0.0km/h
01:00-2.4°C-2.3°C-2.4°C89%1045.5hPa0.0mm0.0km/h0.0km/h
01:05-2.4°C-2.3°C-2.4°C90%1045.5hPa0.0mm0.0km/h0.0km/h
01:10-2.4°C-2.3°C-2.4°C90%1045.5hPa0.0mm0.0km/h0.0km/h
01:15-2.4°C-2.4°C-2.5°C90%1045.5hPa0.0mm0.0km/h0.0km/h
01:20-2.6°C-2.5°C-2.6°C90%1045.5hPa0.0mm0.0km/h0.0km/h
01:25-2.5°C-2.5°C-2.6°C90%1045.4hPa0.0mm0.0km/h0.0km/h
01:30-2.6°C-2.5°C-2.6°C90%1045.4hPa0.0mm0.0km/h0.0km/h
01:35-2.6°C-2.5°C-2.7°C90%1045.5hPa0.0mm0.1km/h5.0km/h
01:40-2.5°C-2.4°C-2.6°C90%1045.4hPa0.0mm0.0km/h0.0km/h
01:45-2.5°C-2.4°C-2.5°C90%1045.4hPa0.0mm0.0km/h0.0km/h
01:50-2.5°C-2.4°C-2.6°C90%1045.4hPa0.0mm0.0km/h0.0km/h
01:55-2.7°C-2.6°C-2.7°C90%1045.5hPa0.0mm0.0km/h0.0km/h
02:00-2.7°C-2.7°C-2.8°C90%1045.5hPa0.0mm0.0km/h0.0km/h
02:05-2.8°C-2.7°C-2.8°C90%1045.4hPa0.0mm0.0km/h0.0km/h
02:10-2.9°C-2.8°C-2.9°C90%1045.4hPa0.0mm0.0km/h0.0km/h
02:15-3.0°C-2.9°C-3.1°C90%1045.3hPa0.0mm0.0km/h0.0km/h
02:20-3.1°C-3.1°C-3.2°C90%1045.2hPa0.0mm0.0km/h0.0km/h
02:30-3.2°C-3.2°C-3.2°C90%1045.3hPa0.0mm0.0km/h0.0km/h
02:35-3.3°C-3.2°C-3.3°C90%1045.2hPa0.0mm0.0km/h0.0km/h
02:40-3.3°C-3.3°C-3.3°C90%1045.2hPa0.0mm0.0km/h0.0km/h
02:45-3.3°C-3.3°C-3.4°C90%1045.2hPa0.0mm0.0km/h0.0km/h
02:50-3.5°C-3.4°C-3.5°C90%1045.1hPa0.0mm0.0km/h0.0km/h
02:55-3.6°C-3.5°C-3.6°C90%1045.0hPa0.0mm0.0km/h0.0km/h
03:00-3.6°C-3.6°C-3.6°C90%1044.9hPa0.0mm0.0km/h0.0km/h
03:05-3.6°C-3.6°C-3.7°C90%1044.9hPa0.0mm0.0km/h0.0km/h
03:10-3.6°C-3.6°C-3.7°C90%1044.8hPa0.0mm0.0km/h0.0km/h
03:15-3.7°C-3.6°C-3.7°C90%1044.8hPa0.0mm0.0km/h0.0km/h
03:20-3.7°C-3.7°C-3.7°C90%1044.7hPa0.0mm0.0km/h0.0km/h
03:25-3.7°C-3.7°C-3.7°C90%1044.7hPa0.0mm0.0km/h0.0km/h
03:30-3.7°C-3.7°C-3.7°C90%1044.6hPa0.0mm0.0km/h0.0km/h
03:35-3.7°C-3.7°C-3.7°C90%1044.6hPa0.0mm0.0km/h0.0km/h
03:40-3.8°C-3.7°C-3.8°C90%1044.6hPa0.0mm0.0km/h0.0km/h
03:45-3.8°C-3.8°C-3.8°C90%1044.5hPa0.0mm0.0km/h0.0km/h
03:50-3.8°C-3.8°C-3.9°C90%1044.4hPa0.0mm0.0km/h0.0km/h
03:55-3.9°C-3.8°C-3.9°C90%1044.4hPa0.0mm0.0km/h0.0km/h
04:00-3.9°C-3.9°C-4.0°C90%1044.4hPa0.0mm0.0km/h0.0km/h
04:05-4.0°C-3.9°C-4.1°C90%1044.3hPa0.0mm0.0km/h0.0km/h
04:10-4.1°C-4.1°C-4.1°C90%1044.2hPa0.0mm0.0km/h0.0km/h
04:15-4.1°C-4.1°C-4.1°C90%1044.2hPa0.0mm0.0km/h0.0km/h
04:20-4.2°C-4.1°C-4.2°C90%1044.2hPa0.0mm0.0km/h0.0km/h
04:25-4.2°C-4.2°C-4.2°C90%1044.2hPa0.0mm0.0km/h0.0km/h
04:30-4.3°C-4.2°C-4.3°C90%1044.1hPa0.0mm0.0km/h0.0km/h
04:35-4.3°C-4.3°C-4.3°C90%1044.1hPa0.0mm0.0km/h0.0km/h
04:40-4.3°C-4.3°C-4.4°C90%1044.0hPa0.0mm0.0km/h0.0km/h
04:45-4.4°C-4.4°C-4.4°C90%1044.0hPa0.0mm0.0km/h0.0km/h
04:50-4.5°C-4.4°C-4.5°C90%1043.9hPa0.0mm0.0km/h0.0km/h
04:55-4.6°C-4.5°C-4.6°C90%1043.9hPa0.0mm0.0km/h0.0km/h
05:00-4.6°C-4.6°C-4.6°C90%1043.9hPa0.0mm0.0km/h0.0km/h
05:05-4.7°C-4.6°C-4.7°C90%1043.8hPa0.0mm0.0km/h0.0km/h
05:10-4.7°C-4.7°C-4.7°C90%1043.8hPa0.0mm0.0km/h0.0km/h
05:15-4.8°C-4.7°C-4.8°C90%1043.8hPa0.0mm0.0km/h0.0km/h
05:20-4.8°C-4.8°C-4.8°C90%1043.7hPa0.0mm0.0km/h0.0km/h
05:25-4.8°C-4.8°C-4.8°C90%1043.7hPa0.0mm0.0km/h0.0km/h
05:30-4.8°C-4.8°C-4.9°C90%1043.7hPa0.0mm0.0km/h0.0km/h
05:35-4.9°C-4.9°C-4.9°C90%1043.7hPa0.0mm0.0km/h0.0km/h
05:40-4.9°C-4.9°C-4.9°C90%1043.6hPa0.0mm0.0km/h0.0km/h
05:45-4.9°C-4.9°C-5.0°C90%1043.6hPa0.0mm0.0km/h0.0km/h
05:50-5.0°C-4.9°C-5.1°C90%1043.6hPa0.0mm0.0km/h0.0km/h
05:55-5.1°C-5.0°C-5.1°C90%1043.5hPa0.0mm0.0km/h0.0km/h
06:00-5.1°C-5.1°C-5.1°C90%1043.6hPa0.0mm0.0km/h0.0km/h
06:05-5.1°C-5.1°C-5.2°C90%1043.6hPa0.0mm0.0km/h0.0km/h
06:10-5.2°C-5.1°C-5.2°C90%1043.6hPa0.0mm0.0km/h0.0km/h
06:15-5.2°C-5.2°C-5.2°C90%1043.6hPa0.0mm0.0km/h0.0km/h
06:20-5.2°C-5.2°C-5.2°C90%1043.6hPa0.0mm0.0km/h0.0km/h
06:25-5.2°C-5.2°C-5.2°C90%1043.6hPa0.0mm0.0km/h0.0km/h
06:30-5.2°C-5.2°C-5.3°C90%1043.6hPa0.0mm0.0km/h0.0km/h
06:35-5.3°C-5.2°C-5.3°C90%1043.7hPa0.0mm0.0km/h0.0km/h
06:40-5.3°C-5.3°C-5.3°C90%1043.6hPa0.0mm0.0km/h0.0km/h
06:45-5.3°C-5.3°C-5.4°C90%1043.6hPa0.0mm0.0km/h0.0km/h
06:50-5.4°C-5.3°C-5.4°C90%1043.7hPa0.0mm0.0km/h1.8km/h
06:55-5.4°C-5.4°C-5.4°C90%1043.6hPa0.0mm0.0km/h0.0km/h
07:00-5.4°C-5.4°C-5.5°C90%1043.7hPa0.0mm0.0km/h0.0km/h
07:05-5.5°C-5.4°C-5.5°C90%1043.6hPa0.0mm0.0km/h0.0km/h
07:10-5.5°C-5.5°C-5.6°C90%1043.7hPa0.0mm0.0km/h0.0km/h
07:15-5.6°C-5.6°C-5.6°C90%1043.7hPa0.0mm0.0km/h0.0km/h
07:20-5.6°C-5.6°C-5.6°C90%1043.7hPa0.0mm0.0km/h0.0km/h
07:25-5.6°C-5.6°C-5.7°C90%1043.7hPa0.0mm0.0km/h0.0km/h
07:30-5.6°C-5.6°C-5.6°C90%1043.7hPa0.0mm0.0km/h0.0km/h
07:35-5.6°C-5.6°C-5.6°C90%1043.7hPa0.0mm0.0km/h0.0km/h
07:40-5.6°C-5.6°C-5.6°C90%1043.8hPa0.0mm0.0km/h0.0km/h
07:45-5.6°C-5.6°C-5.6°C90%1043.8hPa0.0mm0.0km/h0.0km/h
07:50-5.6°C-5.5°C-5.6°C90%1043.8hPa0.0mm0.0km/h0.0km/h
07:55-5.5°C-5.5°C-5.6°C90%1043.8hPa0.0mm0.0km/h0.0km/h
08:00-5.4°C-5.4°C-5.5°C90%1043.8hPa0.0mm0.0km/h0.0km/h
08:05-5.3°C-5.3°C-5.4°C90%1043.7hPa0.0mm0.0km/h0.0km/h
08:10-5.3°C-5.3°C-5.4°C90%1043.8hPa0.0mm0.0km/h0.0km/h
08:15-5.3°C-5.2°C-5.3°C90%1043.7hPa0.0mm0.0km/h0.0km/h
08:20-5.2°C-5.2°C-5.2°C90%1043.7hPa0.0mm0.0km/h0.0km/h
08:25-5.2°C-5.1°C-5.2°C90%1043.8hPa0.0mm0.0km/h0.0km/h
08:30-4.9°C-4.6°C-5.1°C90%1043.7hPa0.0mm0.0km/h0.0km/h
08:35-4.6°C-4.5°C-4.6°C90%1043.7hPa0.0mm0.0km/h0.0km/h
08:40-4.5°C-4.4°C-4.6°C90%1043.7hPa0.0mm0.0km/h0.0km/h
08:45-4.4°C-4.3°C-4.4°C90%1043.7hPa0.0mm0.0km/h0.0km/h
08:50-4.3°C-4.3°C-4.3°C90%1043.8hPa0.0mm0.0km/h0.0km/h
08:55-4.3°C-4.3°C-4.3°C90%1043.7hPa0.0mm0.0km/h0.0km/h
09:00-4.3°C-4.3°C-4.3°C90%1043.7hPa0.0mm0.0km/h0.0km/h
09:05-4.2°C-4.2°C-4.3°C90%1043.8hPa0.0mm0.0km/h0.0km/h
09:10-4.2°C-4.2°C-4.3°C90%1043.7hPa0.0mm0.0km/h0.0km/h
09:15-4.2°C-4.1°C-4.2°C90%1043.7hPa0.0mm0.0km/h0.0km/h
09:20-4.0°C-3.9°C-4.1°C91%1043.7hPa0.0mm0.0km/h0.0km/h
09:25-3.8°C-3.7°C-3.8°C91%1043.7hPa0.0mm0.0km/h0.0km/h
09:30-3.9°C-3.8°C-3.9°C91%1043.7hPa0.0mm0.0km/h0.0km/h
09:35-3.8°C-3.7°C-3.9°C91%1043.7hPa0.0mm0.0km/h0.0km/h
09:40-3.7°C-3.6°C-3.8°C91%1043.7hPa0.0mm0.0km/h1.8km/h
09:45-3.6°C-3.5°C-3.6°C91%1043.7hPa0.0mm0.0km/h1.8km/h
09:50-3.6°C-3.6°C-3.6°C91%1043.7hPa0.0mm0.0km/h0.0km/h